[[{"header":{"parameterUnit":"m.s-1","parameterCategory":1,"la1":30.2991,"la2":30.254,"lo1":-89.0895,"lo2":-89.0444,"dy":0.0017,"dx":0.0017,"nx":28,"ny":28,"refTime":"2023-03-21T21:00:00:Z","depth":0,"parameterNumber":2,"parameterNumberName":"U-component_of_WINDS"},"data":[0,0,0,0,0,0,0,0,0,0,0,0,0,0,0,0,0,0,0,0,0,0,0,0,0,0,0,0,0,0,0,0,0,0,0,0,0,0,0,0,0,0,0,0,0,0,0,0,0,0,0,0,0,0,0,0,0,0,-4.0709,-4.071,0,-4.0811,-4.0812,-4.0813,-4.0797,-4.0796,-4.0794,-4.0792,-4.0895,-4.0899,-4.0903,0,0,0,0,0,0,0,0,0,0,0,0,0,-4.0499,-4.0503,-4.0709,-4.071,-4.0711,-4.0811,-4.0812,-4.0814,-4.0798,-4.0796,-4.0794,-4.0792,-4.0893,-4.0898,-4.0904,0,0,0,0,0,0,0,0,0,0,0,0,0,-4.0595,-4.0504,-4.0709,-4.0716,-4.0717,-4.0811,-4.0812,-4.0814,-4.0798,-4.0796,-4.0793,-4.0791,-4.0892,-4.0898,-4.0904,-4.0997,0,0,-4.0924,-4.0927,0,0,0,0,0,0,0,0,-4.0589,-4.0602,-4.0713,-4.0715,-4.0717,-4.0789,-4.0776,-4.0875,-4.0799,-4.0767,-4.0792,-4.0789,-4.0862,-4.087,-4.0895,-4.1002,-4.1006,-4.0925,-4.0929,-4.0932,-4.0934,0,0,0,0,0,0,0,-4.0583,-4.0598,-4.0749,-4.0715,-4.0717,-4.0713,-4.0724,-4.0795,-4.0828,-4.077,-4.0769,-4.0781,-4.0862,-4.0889,-4.0897,-4.1007,-4.0925,-4.0931,-4.0935,-4.0937,-4.1195,-4.1197,0,0,0,0,0,0,-4.0574,-4.0592,-4.0746,-4.0752,-4.0646,-4.0719,-4.0731,-4.0768,-4.0827,-4.0833,-4.0784,-4.078,-4.0879,-4.089,-4.0901,-4.1012,-4.0932,-4.0938,-4.0941,-4.1192,-4.1195,-4.1198,0,0,0,0,0,0,-4.057,-4.0588,-4.0742,-4.0672,-4.0691,-4.0725,-4.0768,-4.0772,-4.0799,-4.0837,-4.0843,-4.0805,-4.0877,-4.0892,-4.0973,-4.1015,-4.0941,-4.0947,-4.1188,-4.1193,-4.1197,-4.1235,0,0,0,0,0,0,-4.0564,-4.0587,-4.0622,-4.0673,-4.0695,-4.0813,-4.077,-4.0776,-4.081,-4.0807,-4.0859,-4.0865,-4.0876,-4.0964,-4.098,-4.1023,-4.0952,-4.1184,-4.119,-4.1195,-4.123,-4.1241,-4.1249,0,0,0,0,0,-4.0556,-4.0629,-4.0624,-4.0643,-4.074,-4.0815,-4.0828,-4.084,-4.0814,-4.0849,-4.0874,-4.0863,-4.1009,-4.0972,-4.099,-4.1036,-4.1182,-4.1189,-4.1195,-4.1226,-4.1239,-4.1249,0,0,0,0,0,0,-4.0581,-4.0635,-4.0631,-4.0722,-4.0764,-4.0812,-4.0858,-4.0853,-4.0903,-4.0898,-4.0911,-4.0923,-4.1005,-4.1029,-4.0987,-4.1128,-4.1092,-4.1102,-4.1109,-4.1121,-4.113,-4.1122,-4.0957,0,0,0,0,0,-4.0597,-4.0654,-4.0698,-4.0774,-4.0796,-4.0823,-4.0856,-4.0862,-4.0906,-4.0924,-4.0955,-4.0997,-4.1053,-4.1089,-4.1142,-4.1235,-4.1245,-4.1276,-4.1285,-4.1292,-4.1301,-4.1351,-4.1364,-4.122,-4.122,-4.122,0,0,-4.063,-4.0667,-4.0702,-4.078,-4.0813,-4.0871,-4.0838,-4.0901,-4.0943,-4.0933,-4.1011,-4.1036,-4.1085,-4.1172,-4.1212,-4.1195,-4.1343,-4.1301,-4.1307,-4.1311,-4.1359,-4.1373,-4.1385,-4.1224,-4.1224,-4.1223,0,0,-4.072,-4.0755,-4.0821,-4.0856,-4.0907,-4.0925,-4.0942,-4.0991,-4.1007,-4.1087,-4.108,-4.1131,-4.1226,-4.1261,-4.1291,-4.1396,-4.1387,-4.1413,-4.1461,-4.151,-4.1522,-4.1532,-4.1568,-4.1581,-4.1422,-4.1422,-4.1422,0,-4.0755,-4.0842,-4.0856,-4.0919,-4.0953,-4.0948,-4.1016,-4.1048,-4.1114,-4.1138,-4.1118,-4.1238,-4.127,-4.1365,-4.1391,-4.1416,-4.1434,-4.1406,-4.1519,-4.1529,-4.1539,-4.1573,-4.1587,-4.1425,-4.1424,-4.1424,-4.1424,0,-4.0881,-4.0942,-4.099,-4.1054,-4.1094,-4.1159,-4.1182,-4.1221,-4.1225,-4.1245,-4.1326,-4.1365,-4.1426,-4.1449,-4.1453,-4.1545,-4.1533,-4.1516,-4.1479,-4.1555,-4.1587,-4.1601,-4.1429,-4.1428,-4.1427,-4.1426,0,0,-4.0987,-4.106,-4.1077,-4.1106,-4.1163,-4.121,-4.1275,-4.1335,-4.1367,-4.1414,-4.1468,-4.155,-4.1535,-4.1569,-4.1577,-4.162,-4.1699,-4.1598,-4.16,-4.1614,-4.1802,-4.1813,-4.1828,-4.1695,-4.1698,-4.17,-4.1797,0,-4.1081,-4.1196,-4.1211,-4.1312,-4.1368,-4.1365,-4.1422,-4.1463,-4.1484,-4.1534,-4.1558,-4.1615,-4.1591,-4.1612,-4.1655,-4.1681,-4.1737,-4.1674,-4.1744,-4.1746,-4.173,-4.1845,-4.1856,-4.1946,-4.181,-4.1813,-4.1814,0,-4.1206,-4.1256,-4.1363,-4.1412,-4.1436,-4.1487,-4.1543,-4.1592,-4.1638,-4.1651,-4.169,-4.1693,-4.176,-4.1722,-4.1814,-4.1771,-4.1801,-4.1818,-4.1822,-4.1827,-4.1783,-4.1851,-4.1975,-4.1988,-4.1835,-4.1833,-4.1832,0,-4.127,-4.1365,-4.1441,-4.1466,-4.1526,-4.1562,-4.1588,-4.1633,-4.1668,-4.1718,-4.174,-4.1797,-4.1828,-4.1872,-4.189,-4.1861,-4.198,-4.1944,-4.1991,-4.1991,-4.2014,-4.2012,-4.2143,-4.2037,-4.2037,-4.2037,-4.2037,0,-4.1372,-4.1437,-4.147,-4.1517,-4.159,-4.1607,-4.1679,-4.1704,-4.1744,-4.1795,-4.1797,-4.1845,-4.1867,-4.1918,-4.1933,-4.2006,-4.202,-4.2031,-4.2034,-4.203,-4.2028,-4.2048,-4.2041,-4.2041,-4.204,-4.2039,-4.2038,0,-4.1455,-4.148,-4.1562,-4.1613,-4.1627,-4.1679,-4.1722,-4.1767,-4.1789,-4.1854,-4.187,-4.1903,-4.1964,-4.1987,-4.2061,-4.2071,-4.2155,-4.2154,-4.2139,-4.2139,-4.2184,-4.2179,-4.2331,-4.2351,-4.2234,-4.2235,-4.2236,0,-4.1517,-4.1567,-4.1623,-4.1658,-4.1686,-4.1742,-4.1778,-4.1798,-4.1835,-4.1893,-4.1931,-4.1992,-4.2041,-4.2138,-4.2169,-4.2225,-4.2224,-4.2274,-4.2232,-4.2227,-4.2223,-4.2218,-4.2223,-4.228,-4.2281,-4.2282,-4.2283,0,-4.1624,-4.1634,-4.1687,-4.1744,-4.1787,-4.1833,-4.1877,-4.1906,-4.1932,-4.1974,-4.2036,-4.2075,-4.2151,-4.2211,-4.2269,-4.2296,-4.2294,-4.2296,-4.231,-4.2305,-4.2293,-4.2298,-4.2158,-4.2292,-4.2291,-4.229,-4.229,-4.229,-4.1698,-4.1742,-4.1788,-4.1847,-4.1882,-4.1924,-4.1969,-4.1996,-4.2049,-4.2112,-4.2121,-4.2187,-4.2233,-4.2312,-4.2342,-4.2394,-4.2381,-4.2401,-4.2405,-4.2409,-4.2412,-4.2287,-4.2405,-4.2405,-4.2405,-4.2404,-4.2404,0,-4.1803,-4.1834,-4.1887,-4.1949,-4.1995,-4.1991,-4.204,-4.2078,-4.2137,-4.218,-4.2229,-4.2301,-4.2359,-4.2395,-4.2454,-4.2489,-4.2489,-4.2503,-4.25,-4.2506,-4.2421,-4.2403,-4.2502,-4.2502,-4.2502,-4.2502,-4.2502,-4.2502,-4.1864,-4.1938,-4.1954,-4.2046,-4.2075,-4.2141,-4.2169,-4.2208,-4.2242,-4.2322,-4.2371,-4.2394,-4.2435,-4.2497,-4.255,-4.2559,-4.258,-4.2595,-4.2603,-4.2522,-4.2512,-4.2502,-4.2485,-4.26,-4.26,-4.2683,-4.2684,-4.2684]},{"header":{"parameterUnit":"m.s-1","parameterCategory":1,"la1":30.2991,"la2":30.254,"lo1":-89.0895,"lo2":-89.0444,"dy":0.0017,"dx":0.0017,"nx":28,"ny":28,"refTime":"2023-03-21T21:00:00:Z","depth":0,"parameterNumber":3,"parameterNumberName":"V-component_of_WINDS"},"data":[0,0,0,0,0,0,0,0,0,0,0,0,0,0,0,0,0,0,0,0,0,0,0,0,0,0,0,0,0,0,0,0,0,0,0,0,0,0,0,0,0,0,0,0,0,0,0,0,0,0,0,0,0,0,0,0,0,0,5.1245,5.1245,0,5.123,5.123,5.123,5.1146,5.1144,5.1142,5.1141,5.1126,5.1128,5.1129,0,0,0,0,0,0,0,0,0,0,0,0,0,5.1203,5.1204,5.1245,5.1245,5.1245,5.123,5.123,5.123,5.1147,5.1144,5.1142,5.114,5.1126,5.1127,5.1129,0,0,0,0,0,0,0,0,0,0,0,0,0,5.1208,5.1204,5.1245,5.1201,5.1197,5.123,5.123,5.1229,5.1147,5.1144,5.1141,5.1139,5.1125,5.1127,5.1129,5.1203,0,0,5.1136,5.1137,0,0,0,0,0,0,0,0,5.1208,5.121,5.1208,5.1205,5.12,5.1187,5.1209,5.1221,5.1148,5.1166,5.1141,5.1137,5.1149,5.1149,5.1153,5.1202,5.1202,5.1136,5.1138,5.1139,5.1139,0,0,0,0,0,0,0,5.1208,5.121,5.1239,5.1208,5.1203,5.1183,5.118,5.1211,5.1175,5.1165,5.1158,5.1158,5.1146,5.1151,5.1152,5.1201,5.1136,5.1138,5.114,5.114,5.1309,5.1312,0,0,0,0,0,0,5.1213,5.121,5.1239,5.1238,5.1197,5.1186,5.1183,5.1194,5.1174,5.1168,5.116,5.1154,5.1148,5.1149,5.1151,5.1234,5.1139,5.1141,5.1142,5.1306,5.131,5.1313,0,0,0,0,0,0,5.1213,5.1217,5.124,5.1223,5.1224,5.119,5.1203,5.1195,5.12,5.1171,5.1164,5.1172,5.1146,5.1148,5.119,5.1232,5.1142,5.1144,5.1303,5.1307,5.1312,5.1402,0,0,0,0,0,0,5.1212,5.1217,5.1244,5.1224,5.1225,5.1279,5.1206,5.1197,5.1204,5.1195,5.118,5.1174,5.1144,5.1187,5.1192,5.1234,5.1145,5.1299,5.1305,5.131,5.1395,5.1409,5.1421,0,0,0,0,0,5.1211,5.127,5.1246,5.125,5.1259,5.1282,5.1283,5.1246,5.1208,5.1235,5.1216,5.1175,5.1228,5.1192,5.1197,5.124,5.1296,5.1303,5.131,5.1389,5.1406,5.1421,0,0,0,0,0,0,5.1296,5.1267,5.1239,5.1294,5.1291,5.1268,5.1301,5.1266,5.1274,5.1266,5.1221,5.1218,5.1267,5.1258,5.1219,5.131,5.1255,5.1263,5.1313,5.1329,5.1342,5.1342,5.1147,0,0,0,0,0,5.1322,5.1343,5.1316,5.1368,5.1368,5.1335,5.1344,5.1316,5.1311,5.131,5.1294,5.1291,5.1307,5.1318,5.1331,5.1394,5.1389,5.1426,5.144,5.145,5.1457,5.1489,5.1505,5.1337,5.1337,5.1337,0,0,5.1374,5.1361,5.1377,5.1385,5.1379,5.1402,5.1334,5.1362,5.1378,5.1314,5.1352,5.1341,5.1335,5.1388,5.141,5.1382,5.1503,5.146,5.1469,5.1469,5.1498,5.1514,5.1528,5.1342,5.1341,5.134,0,0,5.1481,5.1474,5.1515,5.1511,5.1503,5.1481,5.1491,5.1473,5.1463,5.1501,5.1453,5.1473,5.1502,5.1499,5.1501,5.1608,5.157,5.1614,5.1682,5.1713,5.1726,5.1738,5.1774,5.1788,5.1622,5.1622,5.1622,0,5.1547,5.1579,5.1541,5.1571,5.1575,5.1519,5.156,5.1558,5.1555,5.156,5.1528,5.1562,5.1555,5.1605,5.1631,5.1636,5.1646,5.1614,5.1728,5.1739,5.1749,5.1783,5.1797,5.1627,5.1627,5.1626,5.1626,0,5.166,5.1683,5.1718,5.1716,5.1724,5.176,5.1727,5.1741,5.1713,5.1695,5.1734,5.1723,5.1732,5.1743,5.1717,5.179,5.1773,5.1736,5.1679,5.1771,5.1802,5.1815,5.1635,5.1633,5.1631,5.163,0,0,5.1818,5.1795,5.1808,5.1806,5.1794,5.1811,5.1845,5.1854,5.1866,5.1867,5.1893,5.1919,5.1884,5.1887,5.1861,5.1889,5.1972,5.1847,5.1847,5.1869,5.2051,5.2077,5.2093,5.1948,5.1951,5.1952,5.2051,0,5.1918,5.1973,5.1939,5.1999,5.202,5.1967,5.1996,5.1992,5.1977,5.1992,5.1975,5.1993,5.1947,5.1949,5.1974,5.1957,5.2008,5.1949,5.1971,5.1972,5.1971,5.2109,5.2137,5.223,5.2063,5.2065,5.2066,0,5.2041,5.2047,5.2109,5.2092,5.21,5.2126,5.2131,5.2147,5.2142,5.2129,5.2133,5.2099,5.2131,5.2078,5.212,5.2081,5.2089,5.2082,5.2085,5.2083,5.2023,5.2109,5.2259,5.2272,5.2086,5.2084,5.2083,0,5.2148,5.2171,5.221,5.2211,5.2193,5.2213,5.2207,5.2199,5.2206,5.2212,5.2216,5.2226,5.223,5.2238,5.2208,5.2172,5.2255,5.2199,5.2244,5.2244,5.2261,5.226,5.2411,5.2271,5.227,5.227,5.227,0,5.2261,5.23,5.2257,5.2281,5.2324,5.2286,5.233,5.2318,5.2312,5.2332,5.2289,5.231,5.227,5.2287,5.2264,5.2302,5.2306,5.2295,5.2288,5.2297,5.2298,5.2299,5.2291,5.2274,5.2273,5.2272,5.2272,0,5.2385,5.2358,5.2398,5.2378,5.2374,5.2407,5.239,5.2411,5.2394,5.2421,5.2425,5.2397,5.2415,5.2386,5.2401,5.2386,5.2438,5.2422,5.2439,5.2433,5.2479,5.2474,5.2634,5.2653,5.2503,5.2504,5.2506,0,5.2458,5.2487,5.2471,5.2482,5.2478,5.2496,5.2503,5.2468,5.2477,5.2474,5.2496,5.251,5.2519,5.255,5.2531,5.2542,5.2525,5.258,5.2526,5.2534,5.2523,5.252,5.2522,5.259,5.2592,5.2594,5.2595,0,5.259,5.2575,5.2587,5.2595,5.2604,5.2609,5.261,5.2622,5.2585,5.2598,5.2615,5.2622,5.2637,5.2651,5.2657,5.2651,5.2617,5.2613,5.2623,5.2631,5.2639,5.2633,5.2467,5.2608,5.2607,5.2606,5.2605,5.2605,5.2689,5.2711,5.2703,5.2718,5.2716,5.2718,5.2737,5.2721,5.2735,5.2744,5.2723,5.2745,5.274,5.2745,5.2742,5.2759,5.2735,5.2751,5.2754,5.2758,5.2764,5.2639,5.2761,5.2761,5.276,5.276,5.2759,0,5.2816,5.2808,5.2822,5.2825,5.2837,5.2805,5.2805,5.2816,5.2836,5.2834,5.2844,5.2864,5.2878,5.286,5.2871,5.2888,5.2872,5.2892,5.2889,5.2888,5.2786,5.2775,5.2904,5.2904,5.2904,5.2904,5.2904,5.2904,5.2883,5.2919,5.2904,5.2939,5.2931,5.2952,5.2955,5.2957,5.2954,5.2978,5.2989,5.2978,5.297,5.298,5.2991,5.2986,5.2991,5.3015,5.3004,5.2909,5.2895,5.2881,5.287,5.3017,5.3017,5.3103,5.3104,5.3105]}]]